This demonstration page uses our WeatherBlox Daily Observations layout. Learn more.

Left ArrowRight Arrow

Hourly Observations for March 11, 2017

Temp ( °F °C ) Dew Point ( °F °C ) Humidity (%) Winds ( mph kmh ) Pressure ( in mb ) Visibility ( mi km ) Precip ( " mm )
12:53 am 00:53 Clear 25 -3.9 9 -12.8 50 50 N 10 17 30.41 1030 10 16 N/A
1:53 am 01:53 Clear 24 -4.4 9 -12.8 52 52 N 7 11 30.42 1030 10 16 N/A
2:53 am 02:53 Clear 23 -5 7 -13.9 50 50 N 9 15 30.42 1030 10 16 N/A
3:53 am 03:53 Clear 23 -5 9 -12.8 55 55 N 5 7 30.43 1030 10 16 N/A
4:53 am 04:53 Partly Cloudy 23 -5 9 -12.8 55 55 N 5 7 30.45 1031 10 16 N/A
5:53 am 05:53 Clear 23 -5 9 -12.8 55 55 NNW 5 7 30.46 1032 10 16 N/A
6:53 am 06:53 Clear 23 -5 10 -12.2 57 57 NNW 3 6 30.48 1032 10 16 N/A
7:53 am 07:53 Sunny 24 -4.4 9 -12.8 52 52 NNW 3 6 30.48 1032 10 16 N/A
8:53 am 08:53 Sunny 26 -3.3 9 -12.8 48 48 VRB 5 7 30.48 1032 10 16 N/A
9:53 am 09:53 Sunny 28 -2.2 11 -11.7 49 49 VRB 6 9 30.49 1033 10 16 N/A
10:53 am 10:53 Sunny 29 -1.7 11 -11.7 47 47 undefined N/A 30.49 1033 10 16 N/A
11:53 am 11:53 Sunny 31 -0.6 12 -11.1 45 45 WNW 7 11 30.49 1033 10 16 N/A
12:53 pm 12:53 Sunny 34 1.1 12 -11.1 40 40 N N/A 30.47 1032 10 16 N/A
1:53 pm 13:53 Sunny 34 1.1 12 -11.1 40 40 N 8 13 30.44 1031 10 16 N/A
2:53 pm 14:53 Sunny 34 1.1 11 -11.7 38 38 N N/A 30.43 1031 10 16 N/A
3:53 pm 15:53 Sunny 37 2.8 14 -10 39 39 N 5 7 30.43 1030 10 16 N/A
4:53 pm 16:53 Sunny 36 2.2 12 -11.1 37 37 NNW 5 7 30.41 1030 10 16 N/A
5:53 pm 17:53 Sunny 34 1.1 12 -11.1 40 40 NW 7 11 30.40 1030 10 16 N/A
6:53 pm 18:53 Clear 32 undefined 13 -10.6 45 45 NW 7 11 30.41 1030 10 16 N/A
7:53 pm 19:53 Clear 30 -1.1 15 -9.4 54 54 NW 6 9 30.41 1030 10 16 N/A
8:53 pm 20:53 Clear 30 -1.1 14 -10 51 51 NNW 7 11 30.42 1030 10 16 N/A
9:53 pm 21:53 Clear 29 -1.7 14 -10 54 54 NNW 5 7 30.44 1031 10 16 N/A
10:53 pm 22:53 Clear 28 -2.2 15 -9.4 58 58 NNW 5 7 30.44 1031 10 16 N/A
11:53 pm 23:53 Clear 27 -2.8 15 -9.4 61 61 NNW 7 11 30.45 1031 10 16 N/A

Powered by AerisWeather